Year,Month,Day,Hour,Minute,Value (Times are PST for windgust in km/hr)
2019,07,17,00,00,12.90
2019,07,17,00,01,16.10
2019,07,17,00,02,17.70
2019,07,17,00,03,14.50
2019,07,17,00,04,19.30
2019,07,17,00,05,19.30
2019,07,17,00,06,17.70
2019,07,17,00,07,16.10
2019,07,17,00,08,20.90
2019,07,17,00,09,17.70
2019,07,17,00,10,19.30
2019,07,17,00,11,20.90
2019,07,17,00,12,17.70
2019,07,17,00,13,11.30
2019,07,17,00,14,25.70
2019,07,17,00,15,27.40
2019,07,17,00,16,19.30
2019,07,17,00,17,22.50
2019,07,17,00,18,17.70
2019,07,17,00,19,19.30
2019,07,17,00,20,30.60
2019,07,17,00,21,12.90
2019,07,17,00,22,25.70
2019,07,17,00,23,20.90
2019,07,17,00,24,24.20
2019,07,17,00,25,12.90
2019,07,17,00,26,25.70
2019,07,17,00,27,22.50
2019,07,17,00,28,20.90
2019,07,17,00,29,20.90
2019,07,17,00,30,24.20
2019,07,17,00,31,20.90
2019,07,17,00,32,20.90
2019,07,17,00,33,25.70
2019,07,17,00,34,14.50
2019,07,17,00,35,17.70
2019,07,17,00,36,20.90
2019,07,17,00,37,16.10
2019,07,17,00,38,16.10
2019,07,17,00,39,17.70
2019,07,17,00,40,14.50
2019,07,17,00,41,17.70
2019,07,17,00,42,12.90
2019,07,17,00,43,19.30
2019,07,17,00,44,17.70
2019,07,17,00,45,20.90
2019,07,17,00,46,17.70
2019,07,17,00,47,14.50
2019,07,17,00,48,16.10
2019,07,17,00,49,14.50
2019,07,17,00,50,9.60
2019,07,17,00,51,9.60
2019,07,17,00,52,8.10
2019,07,17,00,53,6.40
2019,07,17,00,54,9.60
2019,07,17,00,55,8.10
2019,07,17,00,56,9.60
2019,07,17,00,57,8.10
2019,07,17,00,58,6.40
2019,07,17,00,59,6.40
2019,07,17,01,00,8.10
2019,07,17,01,01,11.30
2019,07,17,01,02,12.90
2019,07,17,01,03,6.40
2019,07,17,01,04,9.60
2019,07,17,01,05,3.20
2019,07,17,01,06,8.10
2019,07,17,01,07,6.40
2019,07,17,01,08,3.20
2019,07,17,01,43,6.40
2019,07,17,01,44,8.10
2019,07,17,01,45,8.10
2019,07,17,01,46,6.40
2019,07,17,01,47,6.40
2019,07,17,01,48,4.80
2019,07,17,01,49,4.80
2019,07,17,01,51,1.60
2019,07,17,01,52,3.20
2019,07,17,01,53,1.60
2019,07,17,01,54,4.80
2019,07,17,01,55,4.80
2019,07,17,01,56,3.20
2019,07,17,01,57,4.80
2019,07,17,01,58,4.80
2019,07,17,01,59,4.80
2019,07,17,02,00,6.40
2019,07,17,02,01,6.40
2019,07,17,02,02,4.80
2019,07,17,02,03,6.40
2019,07,17,02,04,6.40
2019,07,17,02,05,4.80
2019,07,17,02,06,3.20
2019,07,17,02,07,4.80
2019,07,17,02,08,4.80
2019,07,17,02,09,6.40
2019,07,17,02,10,3.20
2019,07,17,02,11,3.20
2019,07,17,02,12,3.20
2019,07,17,02,13,1.60
2019,07,17,02,17,8.10
2019,07,17,02,18,3.20
2019,07,17,02,19,6.40
2019,07,17,02,20,9.60
2019,07,17,02,21,8.10
2019,07,17,02,22,8.10
2019,07,17,02,23,6.40
2019,07,17,02,24,4.80
2019,07,17,02,25,4.80
2019,07,17,02,26,3.20
2019,07,17,02,27,4.80
2019,07,17,02,28,4.80
2019,07,17,02,29,4.80
2019,07,17,02,30,4.80
2019,07,17,02,31,4.80
2019,07,17,02,32,4.80
2019,07,17,02,33,4.80
2019,07,17,02,34,3.20
2019,07,17,02,35,4.80
2019,07,17,02,36,8.10
2019,07,17,02,37,12.90
2019,07,17,02,38,11.30
2019,07,17,02,39,11.30
2019,07,17,02,40,8.10
2019,07,17,02,41,6.40
2019,07,17,02,42,6.40
2019,07,17,02,43,3.20
2019,07,17,03,00,6.40
2019,07,17,03,01,8.10
2019,07,17,03,02,3.20
2019,07,17,03,04,6.40
2019,07,17,03,05,9.60
2019,07,17,03,06,6.40
2019,07,17,03,07,11.30
2019,07,17,03,08,6.40
2019,07,17,03,09,11.30
2019,07,17,03,10,6.40
2019,07,17,03,11,16.10
2019,07,17,03,12,19.30
2019,07,17,03,13,16.10
2019,07,17,03,14,11.30
2019,07,17,03,15,12.90
2019,07,17,03,16,14.50
2019,07,17,03,17,9.60
2019,07,17,03,18,8.10
2019,07,17,03,19,6.40
2019,07,17,03,20,3.20
2019,07,17,03,21,3.20
2019,07,17,03,22,6.40
2019,07,17,03,23,6.40
2019,07,17,03,24,6.40
2019,07,17,03,25,6.40
2019,07,17,03,26,6.40
2019,07,17,03,27,6.40
2019,07,17,03,28,8.10
2019,07,17,03,29,9.60
2019,07,17,03,30,11.30
2019,07,17,03,31,12.90
2019,07,17,03,32,11.30
2019,07,17,03,33,9.60
2019,07,17,03,34,12.90
2019,07,17,03,35,6.40
2019,07,17,03,36,6.40
2019,07,17,03,37,9.60
2019,07,17,03,38,8.10
2019,07,17,03,39,6.40
2019,07,17,03,40,9.60
2019,07,17,03,41,9.60
2019,07,17,03,42,9.60
2019,07,17,03,43,11.30
2019,07,17,03,44,4.80
2019,07,17,03,45,3.20
2019,07,17,03,46,6.40
2019,07,17,03,47,8.10
2019,07,17,03,48,6.40
2019,07,17,03,49,6.40
2019,07,17,03,50,6.40
2019,07,17,03,51,8.10
2019,07,17,03,52,6.40
2019,07,17,03,53,4.80
2019,07,17,03,54,1.60
2019,07,17,03,55,9.60
2019,07,17,03,56,8.10
2019,07,17,03,57,4.80
2019,07,17,03,58,1.60
2019,07,17,03,59,3.20
2019,07,17,04,00,1.60
2019,07,17,04,03,3.20
2019,07,17,04,05,4.80
2019,07,17,04,06,1.60
2019,07,17,04,07,4.80
2019,07,17,04,08,4.80
2019,07,17,04,09,6.40
2019,07,17,04,10,12.90
2019,07,17,04,11,8.10
2019,07,17,04,12,8.10
2019,07,17,04,13,6.40
2019,07,17,04,14,9.60
2019,07,17,04,15,11.30
2019,07,17,04,16,3.20
2019,07,17,04,17,8.10
2019,07,17,04,18,8.10
2019,07,17,04,19,6.40
2019,07,17,04,20,12.90
2019,07,17,04,21,6.40
2019,07,17,04,22,11.30
2019,07,17,04,23,14.50
2019,07,17,04,24,17.70
2019,07,17,04,25,11.30
2019,07,17,04,26,17.70
2019,07,17,04,27,12.90
2019,07,17,04,28,8.10
2019,07,17,04,29,8.10
2019,07,17,04,30,3.20
2019,07,17,04,31,12.90
2019,07,17,04,32,12.90
2019,07,17,04,33,9.60
2019,07,17,04,34,9.60
2019,07,17,04,35,11.30
2019,07,17,04,36,17.70
2019,07,17,04,37,17.70
2019,07,17,04,38,12.90
2019,07,17,04,39,9.60
2019,07,17,04,40,11.30
2019,07,17,04,41,9.60
2019,07,17,04,42,11.30
2019,07,17,04,43,20.90
2019,07,17,04,44,20.90
2019,07,17,04,45,11.30
2019,07,17,04,46,17.70
2019,07,17,04,47,16.10
2019,07,17,04,48,11.30
2019,07,17,04,49,6.40
2019,07,17,04,50,3.20
2019,07,17,04,51,3.20
2019,07,17,04,52,3.20
2019,07,17,04,53,3.20
2019,07,17,04,54,3.20
2019,07,17,04,55,6.40
2019,07,17,04,56,8.10
2019,07,17,04,57,3.20
2019,07,17,04,58,11.30
2019,07,17,04,59,12.90
2019,07,17,05,00,16.10
2019,07,17,05,01,9.60
2019,07,17,05,02,6.40
2019,07,17,05,03,3.20
2019,07,17,05,04,3.20
2019,07,17,05,05,9.60
2019,07,17,05,06,14.50
2019,07,17,05,07,16.10
2019,07,17,05,08,19.30
2019,07,17,05,09,11.30
2019,07,17,05,10,6.40
2019,07,17,05,11,8.10
2019,07,17,05,12,3.20
2019,07,17,05,13,6.40
2019,07,17,05,14,6.40
2019,07,17,05,15,6.40
2019,07,17,05,16,9.60
2019,07,17,05,17,9.60
2019,07,17,05,18,8.10
2019,07,17,05,19,8.10
2019,07,17,05,20,8.10
2019,07,17,05,21,12.90
2019,07,17,05,22,9.60
2019,07,17,05,23,6.40
2019,07,17,05,24,8.10
2019,07,17,05,25,8.10
2019,07,17,05,26,4.80
2019,07,17,05,27,11.30
2019,07,17,05,28,9.60
2019,07,17,05,29,6.40
2019,07,17,05,30,9.60
2019,07,17,05,31,8.10
2019,07,17,05,32,9.60
2019,07,17,05,33,17.70
2019,07,17,05,34,9.60
2019,07,17,05,35,9.60
2019,07,17,05,36,8.10
2019,07,17,05,37,8.10
2019,07,17,05,38,8.10
2019,07,17,05,39,8.10
2019,07,17,05,40,6.40
2019,07,17,05,41,6.40
2019,07,17,05,42,4.80
2019,07,17,05,43,6.40
2019,07,17,05,44,6.40
2019,07,17,05,45,6.40
2019,07,17,05,46,4.80
2019,07,17,05,47,6.40
2019,07,17,05,48,6.40
2019,07,17,05,49,8.10
2019,07,17,05,50,6.40
2019,07,17,05,51,4.80
2019,07,17,05,52,6.40
2019,07,17,05,53,6.40
2019,07,17,05,54,4.80
2019,07,17,05,55,6.40
2019,07,17,05,56,6.40
2019,07,17,05,57,6.40
2019,07,17,05,58,8.10
2019,07,17,05,59,8.10
2019,07,17,06,00,8.10
2019,07,17,06,01,6.40
2019,07,17,06,02,6.40
2019,07,17,06,03,6.40
2019,07,17,06,04,4.80
2019,07,17,06,05,4.80
2019,07,17,06,06,8.10
2019,07,17,06,07,8.10
2019,07,17,06,08,8.10
2019,07,17,06,09,8.10
2019,07,17,06,10,8.10
2019,07,17,06,11,6.40
2019,07,17,06,12,8.10
2019,07,17,06,13,4.80
2019,07,17,06,14,1.60
2019,07,17,06,15,3.20
2019,07,17,06,16,6.40
2019,07,17,06,17,8.10
2019,07,17,06,18,8.10
2019,07,17,06,19,9.60
2019,07,17,06,20,8.10
2019,07,17,06,21,9.60
2019,07,17,06,22,6.40
2019,07,17,06,23,4.80
2019,07,17,06,24,8.10
2019,07,17,06,25,6.40
2019,07,17,06,26,4.80
2019,07,17,06,27,3.20
2019,07,17,06,28,4.80
2019,07,17,06,31,4.80
2019,07,17,06,32,4.80
2019,07,17,06,33,3.20
2019,07,17,06,34,4.80
2019,07,17,06,35,6.40
2019,07,17,06,36,4.80
2019,07,17,06,37,4.80
2019,07,17,06,38,3.20
2019,07,17,06,39,3.20
2019,07,17,06,40,4.80
2019,07,17,06,41,6.40
2019,07,17,06,42,4.80
2019,07,17,06,43,6.40
2019,07,17,06,44,4.80
2019,07,17,06,45,4.80
2019,07,17,06,46,4.80
2019,07,17,06,47,3.20
2019,07,17,06,48,4.80
2019,07,17,06,49,4.80
2019,07,17,06,50,4.80
2019,07,17,06,51,4.80
2019,07,17,06,52,4.80
2019,07,17,06,53,4.80
2019,07,17,06,54,3.20
2019,07,17,06,55,4.80
2019,07,17,06,56,4.80
2019,07,17,06,57,6.40
2019,07,17,06,58,4.80
2019,07,17,06,59,4.80
2019,07,17,07,00,4.80
2019,07,17,07,01,4.80
2019,07,17,07,02,4.80
2019,07,17,07,03,4.80
2019,07,17,07,04,6.40
2019,07,17,07,05,6.40
2019,07,17,07,06,4.80
2019,07,17,07,07,3.20
2019,07,17,07,08,3.20
2019,07,17,07,09,3.20
2019,07,17,07,10,4.80
2019,07,17,07,11,3.20
2019,07,17,07,12,3.20
2019,07,17,07,13,1.60
2019,07,17,07,17,1.60
2019,07,17,07,21,4.80
2019,07,17,07,22,6.40
2019,07,17,07,23,4.80
2019,07,17,07,24,3.20
2019,07,17,07,27,4.80
2019,07,17,07,28,4.80
2019,07,17,07,29,4.80
2019,07,17,07,30,4.80
2019,07,17,07,31,3.20
2019,07,17,07,32,4.80
2019,07,17,07,33,3.20
2019,07,17,07,34,4.80
2019,07,17,07,35,4.80
2019,07,17,07,36,4.80
2019,07,17,07,37,4.80
2019,07,17,07,38,3.20
2019,07,17,07,39,8.10
2019,07,17,07,40,8.10
2019,07,17,07,41,8.10
2019,07,17,07,42,6.40
2019,07,17,07,43,4.80
2019,07,17,07,44,4.80
2019,07,17,07,45,3.20
2019,07,17,07,46,4.80
2019,07,17,07,47,3.20
2019,07,17,07,48,1.60
2019,07,17,07,49,1.60
2019,07,17,07,50,1.60
2019,07,17,07,52,3.20
2019,07,17,07,53,3.20
2019,07,17,07,54,4.80
2019,07,17,07,55,4.80
2019,07,17,07,56,6.40
2019,07,17,07,57,6.40
2019,07,17,07,58,8.10
2019,07,17,07,59,6.40
2019,07,17,08,00,4.80
2019,07,17,08,01,3.20
2019,07,17,08,02,3.20
2019,07,17,08,03,1.60
2019,07,17,08,04,1.60
2019,07,17,08,06,1.60
2019,07,17,08,07,1.60
2019,07,17,08,08,3.20
2019,07,17,08,09,3.20
2019,07,17,08,10,1.60
2019,07,17,08,11,1.60
2019,07,17,08,12,1.60
2019,07,17,08,13,1.60
2019,07,17,08,14,1.60
2019,07,17,08,15,1.60
2019,07,17,08,16,3.20
2019,07,17,08,17,3.20
2019,07,17,08,18,4.80
2019,07,17,08,19,4.80
2019,07,17,08,20,6.40
2019,07,17,08,21,8.10
2019,07,17,08,22,8.10
2019,07,17,08,23,9.60
2019,07,17,08,24,11.30
2019,07,17,08,25,9.60
2019,07,17,08,26,11.30
2019,07,17,08,27,9.60
2019,07,17,08,28,8.10
2019,07,17,08,29,6.40
2019,07,17,08,30,6.40
2019,07,17,08,31,11.30
2019,07,17,08,32,12.90
2019,07,17,08,33,11.30
2019,07,17,08,34,8.10
2019,07,17,08,35,8.10
2019,07,17,08,36,11.30
2019,07,17,08,37,17.70
2019,07,17,08,38,11.30
2019,07,17,08,39,9.60
2019,07,17,08,40,3.20
2019,07,17,08,41,1.60
2019,07,17,08,42,4.80
2019,07,17,08,43,4.80
2019,07,17,08,44,1.60
2019,07,17,08,45,8.10
2019,07,17,08,46,6.40
2019,07,17,08,47,8.10
2019,07,17,08,48,9.60
2019,07,17,08,49,6.40
2019,07,17,08,50,4.80
2019,07,17,08,51,4.80
2019,07,17,08,52,4.80
2019,07,17,08,53,6.40
2019,07,17,08,54,6.40
2019,07,17,08,55,4.80
2019,07,17,08,56,4.80
2019,07,17,08,57,4.80
2019,07,17,08,58,4.80
2019,07,17,08,59,4.80
2019,07,17,09,00,4.80
2019,07,17,09,01,1.60
2019,07,17,09,02,3.20
2019,07,17,09,03,4.80
2019,07,17,09,04,6.40
2019,07,17,09,05,4.80
2019,07,17,09,06,6.40
2019,07,17,09,07,20.90
2019,07,17,09,08,19.30
2019,07,17,09,09,11.30
2019,07,17,09,10,11.30
2019,07,17,09,11,11.30
2019,07,17,09,12,17.70
2019,07,17,09,13,9.60
2019,07,17,09,14,14.50
2019,07,17,09,15,12.90
2019,07,17,09,16,22.50
2019,07,17,09,17,20.90
2019,07,17,09,18,22.50
2019,07,17,09,19,17.70
2019,07,17,09,20,29.00
2019,07,17,09,21,22.50
2019,07,17,09,22,16.10
2019,07,17,09,23,17.70
2019,07,17,09,24,29.00
2019,07,17,09,25,9.60
2019,07,17,09,26,9.60
2019,07,17,09,27,9.60
2019,07,17,09,28,9.60
2019,07,17,09,29,24.20
2019,07,17,09,30,30.60
2019,07,17,09,31,29.00
2019,07,17,09,32,20.90
2019,07,17,09,33,12.90
2019,07,17,09,34,9.60
2019,07,17,09,35,16.10
2019,07,17,09,36,11.30
2019,07,17,09,37,20.90
2019,07,17,09,38,9.60
2019,07,17,09,39,16.10
2019,07,17,09,40,12.90
2019,07,17,09,41,17.70
2019,07,17,09,42,19.30
2019,07,17,09,43,11.30
2019,07,17,09,44,16.10
2019,07,17,09,45,9.60
2019,07,17,09,46,9.60
2019,07,17,09,47,8.10
2019,07,17,09,48,9.60
2019,07,17,09,49,8.10
2019,07,17,09,50,17.70
2019,07,17,09,51,14.50
2019,07,17,09,52,22.50
2019,07,17,09,53,19.30
2019,07,17,09,54,32.20
2019,07,17,09,55,16.10
2019,07,17,09,56,24.20
2019,07,17,09,57,25.70
2019,07,17,09,58,24.20
2019,07,17,09,59,30.60
2019,07,17,10,00,22.50
2019,07,17,10,01,27.40
2019,07,17,10,02,14.50
2019,07,17,10,03,12.90
2019,07,17,10,04,12.90
2019,07,17,10,05,16.10
2019,07,17,10,06,16.10
2019,07,17,10,07,17.70
2019,07,17,10,08,14.50
2019,07,17,10,09,24.20
2019,07,17,10,10,22.50
2019,07,17,10,11,24.20
2019,07,17,10,12,24.20
2019,07,17,10,13,27.40
2019,07,17,10,14,37.00
2019,07,17,10,15,14.50
2019,07,17,10,16,32.20
2019,07,17,10,17,25.70
2019,07,17,10,18,17.70
2019,07,17,10,19,20.90
2019,07,17,10,20,24.20
2019,07,17,10,21,12.90
2019,07,17,10,22,14.50
2019,07,17,10,23,16.10
2019,07,17,10,24,17.70
2019,07,17,10,25,14.50
2019,07,17,10,26,14.50
2019,07,17,10,27,17.70
2019,07,17,10,28,19.30
2019,07,17,10,29,12.90
2019,07,17,10,30,25.70
2019,07,17,10,31,12.90
2019,07,17,10,32,19.30
2019,07,17,10,33,27.40
2019,07,17,10,34,17.70
2019,07,17,10,35,9.60
2019,07,17,10,36,17.70
2019,07,17,10,37,17.70
2019,07,17,10,38,27.40
2019,07,17,10,39,20.90
2019,07,17,10,40,25.70
2019,07,17,10,41,25.70
2019,07,17,10,42,27.40
2019,07,17,10,43,33.80
2019,07,17,10,44,22.50
2019,07,17,10,45,25.70
2019,07,17,10,46,16.10
2019,07,17,10,47,19.30
2019,07,17,10,48,16.10
2019,07,17,10,49,24.20
2019,07,17,10,50,17.70
2019,07,17,10,51,22.50
2019,07,17,10,52,17.70
2019,07,17,10,53,25.70
2019,07,17,10,54,29.00
2019,07,17,10,55,22.50
2019,07,17,10,56,24.20
2019,07,17,10,57,24.20
2019,07,17,10,58,19.30
2019,07,17,10,59,22.50
2019,07,17,11,00,20.90
2019,07,17,11,01,24.20
2019,07,17,11,02,22.50
2019,07,17,11,03,25.70
2019,07,17,11,04,22.50
2019,07,17,11,05,16.10
2019,07,17,11,06,19.30
2019,07,17,11,07,17.70
2019,07,17,11,08,19.30
2019,07,17,11,09,12.90
2019,07,17,11,10,16.10
2019,07,17,11,11,30.60
2019,07,17,11,12,27.40
2019,07,17,11,13,24.20
2019,07,17,11,14,37.00
2019,07,17,11,15,38.60
2019,07,17,11,16,32.20
2019,07,17,11,17,20.90
2019,07,17,11,18,16.10
2019,07,17,11,19,20.90
2019,07,17,11,20,37.00
2019,07,17,11,21,33.80
2019,07,17,11,22,20.90
2019,07,17,11,23,30.60
2019,07,17,11,24,33.80
2019,07,17,11,25,27.40
2019,07,17,11,26,25.70
2019,07,17,11,27,24.20
2019,07,17,11,28,17.70
2019,07,17,11,29,25.70
2019,07,17,11,30,19.30
2019,07,17,11,31,30.60
2019,07,17,11,32,17.70
2019,07,17,11,33,27.40
2019,07,17,11,34,20.90
2019,07,17,11,35,17.70
2019,07,17,11,36,30.60
2019,07,17,11,37,24.20
2019,07,17,11,38,29.00
2019,07,17,11,39,25.70
2019,07,17,11,40,22.50
2019,07,17,11,41,24.20
2019,07,17,11,42,19.30
2019,07,17,11,43,27.40
2019,07,17,11,44,32.20
2019,07,17,11,45,20.90
2019,07,17,11,46,22.50
2019,07,17,11,47,17.70
2019,07,17,11,48,20.90
2019,07,17,11,49,24.20
2019,07,17,11,50,20.90
2019,07,17,11,51,17.70
2019,07,17,11,52,29.00
2019,07,17,11,53,16.10
2019,07,17,11,54,17.70
2019,07,17,11,55,27.40
2019,07,17,11,56,30.60
2019,07,17,11,57,14.50
2019,07,17,11,58,22.50
2019,07,17,11,59,27.40
2019,07,17,12,00,24.20
2019,07,17,12,01,30.60
2019,07,17,12,02,27.40
2019,07,17,12,03,30.60
2019,07,17,12,04,30.60
2019,07,17,12,05,24.20
2019,07,17,12,06,19.30
2019,07,17,12,07,20.90
2019,07,17,12,08,32.20
2019,07,17,12,09,27.40
2019,07,17,12,10,24.20
2019,07,17,12,11,20.90
2019,07,17,12,12,16.10
2019,07,17,12,13,24.20
2019,07,17,12,14,20.90
2019,07,17,12,15,27.40
2019,07,17,12,16,24.20
2019,07,17,12,17,12.90
2019,07,17,12,18,22.50
2019,07,17,12,19,25.70
2019,07,17,12,20,29.00
2019,07,17,12,21,27.40
2019,07,17,12,22,32.20
2019,07,17,12,23,29.00
2019,07,17,12,24,24.20
2019,07,17,12,25,30.60
2019,07,17,12,26,32.20
2019,07,17,12,27,32.20
2019,07,17,12,28,27.40
2019,07,17,12,29,27.40
2019,07,17,12,30,25.70
2019,07,17,12,31,17.70
2019,07,17,12,32,33.80
2019,07,17,12,33,33.80
2019,07,17,12,34,27.40
2019,07,17,12,35,22.50
2019,07,17,12,36,22.50
2019,07,17,12,37,20.90
2019,07,17,12,38,30.60
2019,07,17,12,39,25.70
2019,07,17,12,40,29.00
2019,07,17,12,41,29.00
2019,07,17,12,42,29.00
2019,07,17,12,43,33.80
2019,07,17,12,44,27.40
2019,07,17,12,45,24.20
2019,07,17,12,46,27.40
2019,07,17,12,47,32.20
2019,07,17,12,48,19.30
2019,07,17,12,49,30.60
2019,07,17,12,50,20.90
2019,07,17,12,51,16.10
2019,07,17,12,52,19.30
2019,07,17,12,53,38.60
2019,07,17,12,54,29.00
2019,07,17,12,55,33.80
2019,07,17,12,56,33.80
2019,07,17,12,57,22.50
2019,07,17,12,58,27.40
2019,07,17,12,59,32.20
2019,07,17,13,00,19.30
2019,07,17,13,01,27.40
2019,07,17,13,02,25.70
2019,07,17,13,03,32.20
2019,07,17,13,04,30.60
2019,07,17,13,05,29.00
2019,07,17,13,06,35.40
2019,07,17,13,07,29.00
2019,07,17,13,08,29.00
2019,07,17,13,09,32.20
2019,07,17,13,10,24.20
2019,07,17,13,11,25.70
2019,07,17,13,12,30.60
2019,07,17,13,13,27.40
2019,07,17,13,14,25.70
2019,07,17,13,15,30.60
2019,07,17,13,16,27.40
2019,07,17,13,17,22.50
2019,07,17,13,18,29.00
2019,07,17,13,19,32.20
2019,07,17,13,20,20.90
2019,07,17,13,21,24.20
2019,07,17,13,22,27.40
2019,07,17,13,23,27.40
2019,07,17,13,24,29.00
2019,07,17,13,25,27.40
2019,07,17,13,26,38.60
2019,07,17,13,27,24.20
2019,07,17,13,28,24.20
2019,07,17,13,29,29.00
2019,07,17,13,30,30.60
2019,07,17,13,31,19.30
2019,07,17,13,32,25.70
2019,07,17,13,33,38.60
2019,07,17,13,34,19.30
2019,07,17,13,35,17.70
2019,07,17,13,36,29.00
2019,07,17,13,37,30.60
2019,07,17,13,38,27.40
2019,07,17,13,39,25.70
2019,07,17,13,40,24.20
2019,07,17,13,41,32.20
2019,07,17,13,42,27.40
2019,07,17,13,43,22.50
2019,07,17,13,44,19.30
2019,07,17,13,45,22.50
2019,07,17,13,46,20.90
2019,07,17,13,47,17.70
2019,07,17,13,48,17.70
2019,07,17,13,49,24.20
2019,07,17,13,50,22.50
2019,07,17,13,51,20.90
2019,07,17,13,52,20.90
2019,07,17,13,53,16.10
2019,07,17,13,54,25.70
2019,07,17,13,55,29.00
2019,07,17,13,56,24.20
2019,07,17,13,57,24.20
2019,07,17,13,58,24.20
2019,07,17,13,59,24.20
2019,07,17,14,00,24.20
2019,07,17,14,01,19.30
2019,07,17,14,02,16.10
2019,07,17,14,03,24.20
2019,07,17,14,04,38.60
2019,07,17,14,05,24.20
2019,07,17,14,06,30.60
2019,07,17,14,07,29.00
2019,07,17,14,08,29.00
2019,07,17,14,09,29.00
2019,07,17,14,10,25.70
2019,07,17,14,11,19.30
2019,07,17,14,12,38.60
2019,07,17,14,13,30.60
2019,07,17,14,14,27.40
2019,07,17,14,15,22.50
2019,07,17,14,16,22.50
2019,07,17,14,17,30.60
2019,07,17,14,18,22.50
2019,07,17,14,19,29.00
2019,07,17,14,20,20.90
2019,07,17,14,21,29.00
2019,07,17,14,22,25.70
2019,07,17,14,23,37.00
2019,07,17,14,24,38.60
2019,07,17,14,25,32.20
2019,07,17,14,26,25.70
2019,07,17,14,27,30.60
2019,07,17,14,28,35.40
2019,07,17,14,29,25.70
2019,07,17,14,30,25.70
2019,07,17,14,31,32.20
2019,07,17,14,32,38.60
2019,07,17,14,33,33.80
2019,07,17,14,34,29.00
2019,07,17,14,35,41.80
2019,07,17,14,36,29.00
2019,07,17,14,37,35.40
2019,07,17,14,38,33.80
2019,07,17,14,39,24.20
2019,07,17,14,40,29.00
2019,07,17,14,41,30.60
2019,07,17,14,42,25.70
2019,07,17,14,43,27.40
2019,07,17,14,44,35.40
2019,07,17,14,45,22.50
2019,07,17,14,46,30.60
2019,07,17,14,47,30.60
2019,07,17,14,48,32.20
2019,07,17,14,49,35.40
2019,07,17,14,50,25.70
2019,07,17,14,51,32.20
2019,07,17,14,52,33.80
2019,07,17,14,53,32.20
2019,07,17,14,54,22.50
2019,07,17,14,55,25.70
2019,07,17,14,56,33.80
2019,07,17,14,57,46.70
2019,07,17,14,58,37.00
2019,07,17,14,59,38.60
2019,07,17,15,00,35.40
2019,07,17,15,01,29.00
2019,07,17,15,02,35.40
2019,07,17,15,03,32.20
2019,07,17,15,04,38.60
2019,07,17,15,05,33.80
2019,07,17,15,06,33.80
2019,07,17,15,07,32.20
2019,07,17,15,08,30.60
2019,07,17,15,09,27.40
2019,07,17,15,10,30.60
2019,07,17,15,11,29.00
2019,07,17,15,12,30.60
2019,07,17,15,13,30.60
2019,07,17,15,14,35.40
2019,07,17,15,15,37.00
2019,07,17,15,16,41.80
2019,07,17,15,17,35.40
2019,07,17,15,18,32.20
2019,07,17,15,19,29.00
2019,07,17,15,20,29.00
2019,07,17,15,21,40.20
2019,07,17,15,22,38.60
2019,07,17,15,23,32.20
2019,07,17,15,24,32.20
2019,07,17,15,25,32.20
2019,07,17,15,26,33.80
2019,07,17,15,27,35.40
2019,07,17,15,28,35.40
2019,07,17,15,29,41.80
2019,07,17,15,30,38.60
2019,07,17,15,31,24.20
2019,07,17,15,32,38.60
2019,07,17,15,33,30.60
2019,07,17,15,34,29.00
2019,07,17,15,35,29.00
2019,07,17,15,36,29.00
2019,07,17,15,37,24.20
2019,07,17,15,38,17.70
2019,07,17,15,39,19.30
2019,07,17,15,40,20.90
2019,07,17,15,41,40.20
2019,07,17,15,42,35.40
2019,07,17,15,43,37.00
2019,07,17,15,44,33.80
2019,07,17,15,45,46.70
2019,07,17,15,46,33.80
2019,07,17,15,47,25.70
2019,07,17,15,48,22.50
2019,07,17,15,49,29.00
2019,07,17,15,50,38.60
2019,07,17,15,51,25.70
2019,07,17,15,52,27.40
2019,07,17,15,53,14.50
2019,07,17,15,54,17.70
2019,07,17,15,55,40.20
2019,07,17,15,56,37.00
2019,07,17,15,57,33.80
2019,07,17,15,58,20.90
2019,07,17,15,59,38.60
2019,07,17,16,00,35.40
2019,07,17,16,01,38.60
2019,07,17,16,02,30.60
2019,07,17,16,03,27.40
2019,07,17,16,04,20.90
2019,07,17,16,05,25.70
2019,07,17,16,06,41.80
2019,07,17,16,07,25.70
2019,07,17,16,08,29.00
2019,07,17,16,09,35.40
2019,07,17,16,10,37.00
2019,07,17,16,11,41.80
2019,07,17,16,12,35.40
2019,07,17,16,13,38.60
2019,07,17,16,14,30.60
2019,07,17,16,15,20.90
2019,07,17,16,16,40.20
2019,07,17,16,17,29.00
2019,07,17,16,18,35.40
2019,07,17,16,19,33.80
2019,07,17,16,20,22.50
2019,07,17,16,21,37.00
2019,07,17,16,22,38.60
2019,07,17,16,23,38.60
2019,07,17,16,24,38.60
2019,07,17,16,25,24.20
2019,07,17,16,26,27.40
2019,07,17,16,27,24.20
2019,07,17,16,28,19.30
2019,07,17,16,29,22.50
2019,07,17,16,30,25.70
2019,07,17,16,31,19.30
2019,07,17,16,32,25.70
2019,07,17,16,33,24.20
2019,07,17,16,34,22.50
2019,07,17,16,35,37.00
2019,07,17,16,36,35.40
2019,07,17,16,37,30.60
2019,07,17,16,38,30.60
2019,07,17,16,39,22.50
2019,07,17,16,40,19.30
2019,07,17,16,41,33.80
2019,07,17,16,42,41.80
2019,07,17,16,43,40.20
2019,07,17,16,44,19.30
2019,07,17,16,45,29.00
2019,07,17,16,46,38.60
2019,07,17,16,47,38.60
2019,07,17,16,48,37.00
2019,07,17,16,49,41.80
2019,07,17,16,50,40.20
2019,07,17,16,51,33.80
2019,07,17,16,52,41.80
2019,07,17,16,53,38.60
2019,07,17,16,54,40.20
2019,07,17,16,55,41.80
2019,07,17,16,56,38.60
2019,07,17,16,57,45.10
2019,07,17,16,58,37.00
2019,07,17,16,59,33.80
2019,07,17,17,00,30.60
2019,07,17,17,01,38.60
2019,07,17,17,02,38.60
2019,07,17,17,03,35.40
2019,07,17,17,04,27.40
2019,07,17,17,05,30.60
2019,07,17,17,06,30.60
2019,07,17,17,07,27.40
2019,07,17,17,08,17.70
2019,07,17,17,09,17.70
2019,07,17,17,10,17.70
2019,07,17,17,11,17.70
2019,07,17,17,12,20.90
2019,07,17,17,13,27.40
2019,07,17,17,14,35.40
2019,07,17,17,15,27.40
2019,07,17,17,16,33.80
2019,07,17,17,17,33.80
2019,07,17,17,18,37.00
2019,07,17,17,19,24.20
2019,07,17,17,20,43.50
2019,07,17,17,21,43.50
2019,07,17,17,22,30.60
2019,07,17,17,23,38.60
2019,07,17,17,24,24.20
2019,07,17,17,25,33.80
2019,07,17,17,26,33.80
2019,07,17,17,27,40.20
2019,07,17,17,28,33.80
2019,07,17,17,29,35.40
2019,07,17,17,30,24.20
2019,07,17,17,31,19.30
2019,07,17,17,32,35.40
2019,07,17,17,33,38.60
2019,07,17,17,34,30.60
2019,07,17,17,35,35.40
2019,07,17,17,36,35.40
2019,07,17,17,37,27.40
2019,07,17,17,38,27.40
2019,07,17,17,39,16.10
2019,07,17,17,40,32.20
2019,07,17,17,41,20.90
2019,07,17,17,42,17.70
2019,07,17,17,43,27.40
2019,07,17,17,44,29.00
2019,07,17,17,45,35.40
2019,07,17,17,46,30.60
2019,07,17,17,47,29.00
2019,07,17,17,48,25.70
2019,07,17,17,49,29.00
2019,07,17,17,50,25.70
2019,07,17,17,51,25.70
2019,07,17,17,52,22.50
2019,07,17,17,53,30.60
2019,07,17,17,54,25.70
2019,07,17,17,55,37.00
2019,07,17,17,56,35.40
2019,07,17,17,57,29.00
2019,07,17,17,58,29.00
2019,07,17,17,59,25.70
2019,07,17,18,00,25.70
2019,07,17,18,01,17.70
2019,07,17,18,02,24.20
2019,07,17,18,03,29.00
2019,07,17,18,04,29.00
2019,07,17,18,05,19.30
2019,07,17,18,06,27.40
2019,07,17,18,07,29.00
2019,07,17,18,08,32.20
2019,07,17,18,09,32.20
2019,07,17,18,10,35.40
2019,07,17,18,11,32.20
2019,07,17,18,12,24.20
2019,07,17,18,13,20.90
2019,07,17,18,14,30.60
2019,07,17,18,15,32.20
2019,07,17,18,16,32.20
2019,07,17,18,17,32.20
2019,07,17,18,18,22.50
2019,07,17,18,19,29.00
2019,07,17,18,20,19.30
2019,07,17,18,21,33.80
2019,07,17,18,22,32.20
2019,07,17,18,23,30.60
2019,07,17,18,24,30.60
2019,07,17,18,25,30.60
2019,07,17,18,26,33.80
2019,07,17,18,27,37.00
2019,07,17,18,28,27.40
2019,07,17,18,29,24.20
2019,07,17,18,30,25.70
2019,07,17,18,31,35.40
2019,07,17,18,32,16.10
2019,07,17,18,33,30.60
2019,07,17,18,34,25.70
2019,07,17,18,35,35.40
2019,07,17,18,36,37.00
2019,07,17,18,37,29.00
2019,07,17,18,38,27.40
2019,07,17,18,39,25.70
2019,07,17,18,40,35.40
2019,07,17,18,41,29.00
2019,07,17,18,42,17.70
2019,07,17,18,43,32.20
2019,07,17,18,44,22.50
2019,07,17,18,45,24.20